Flag for Germany Weather past 2 weeks in Bochum, North Rhine-Westphalia, Germany

Now
55 °F

Fog.


Feels Like: 54 °F
Forecast: 51 / 65 °F
Wind: 7 mph from Southwest

Location: Dortmund / Wickede

Current Time: Aug 31, 2014 at 8:41:55 AM

Latest Report: Aug 31, 2014 at 7:50 AM


Visibility: 2 mi

Pressure: 29.95 "Hg

Humidity: 94%

Dew point: 54 °F

Location of BochumLocation

Historic Weather in Bochum — Graph

°F

Bochum temperature yesterday

Maximum temperature yesterday: 64 °F (at 10:50 AM)
Minimum temperature yesterday: 57 °F (at 10:50 PM)
Average temperature yesterday: 61 °F

Past Weeks' High & Low Weather Summary

 TemperatureHumidityPressure
High73 °F (Aug 28, 3:20 PM)100% (Aug 27, 6:20 AM)30.09 "Hg (Aug 27, 6:20 AM)
Low45 °F (Aug 27, 5:20 AM)43% (Aug 20, 2:50 PM)29.65 "Hg (Aug 26, 5:20 AM)
Average58 °F73%29.93 "Hg
* Reported Aug 16 7:20 AM — Aug 31 7:20 AM, Bochum, Weather by CustomWeather, © 2014

Note: Actual official high and low records may vary slightly from our data, if they occured in-between our weather recording intervals... More about our weather records

Advertising

Bochum weather history for previous 24 hours

 ConditionsComfort  
Time TempWeatherWind HumidityBarometerVisibility
7:20 AM
Aug 31
55 °FFog.8 mph88%29.95 "Hg3 mi
6:50 AM55 °FFog.6 mph88%29.95 "Hg3 mi
6:20 AM54 °FFog.7 mph94%29.95 "Hg3 mi
5:50 AM55 °FPassing clouds.8 mph88%29.95 "HgN/A
5:20 AM55 °FPassing clouds.7 mph88%29.95 "HgN/A
10:50 PM
Aug 30
57 °FPassing clouds.8 mph88%29.98 "HgN/A
10:20 PM59 °FPassing clouds.9 mph88%30.01 "HgN/A
9:50 PM59 °FPassing clouds.10 mph88%29.98 "HgN/A
9:20 PM59 °FPartly sunny.9 mph82%29.98 "HgN/A
8:50 PM59 °FDrizzle. Partly sunny.12 mph88%29.98 "Hg4 mi
8:20 PM59 °FDrizzle. Broken clouds.5 mph88%29.98 "Hg4 mi
7:20 PM63 °FScattered showers. Partly sunny.13 mph77%29.98 "Hg5 mi
6:50 PM63 °FSprinkles. Partly sunny.13 mph77%29.98 "HgN/A
6:20 PM63 °FPartly sunny.13 mph77%29.98 "HgN/A
5:50 PM63 °FSprinkles. Partly sunny.10 mph77%29.98 "HgN/A
5:20 PM63 °FPartly sunny.10 mph77%29.98 "HgN/A
4:50 PM63 °FPartly sunny.10 mph77%29.98 "HgN/A
4:20 PM63 °FPartly sunny.12 mph77%30.01 "HgN/A
3:50 PM64 °FPartly sunny.14 mph73%30.01 "HgN/A
3:20 PM63 °FPartly sunny.14 mph73%30.01 "HgN/A
2:50 PM63 °FPartly sunny.14 mph77%30.01 "HgN/A
2:20 PM63 °FPartly sunny.12 mph77%30.01 "HgN/A
1:50 PM63 °FDrizzle. Partly sunny.15 mph77%30.01 "HgN/A
1:20 PM61 °FScattered clouds.13 mph83%30.01 "HgN/A
12:50 PM63 °FScattered clouds.14 mph73%30.01 "HgN/A
12:20 PM61 °FSunny.14 mph77%30.01 "Hg10 mi
11:50 AM61 °FPartly sunny.16 mph77%30.04 "HgN/A
11:20 AM63 °FScattered clouds.16 mph73%30.01 "HgN/A
10:50 AM64 °FScattered clouds.14 mph73%30.01 "HgN/A
10:20 AM63 °FScattered clouds.14 mph73%30.01 "HgN/A
9:50 AM61 °FScattered clouds.13 mph77%30.01 "HgN/A
9:20 AM61 °FScattered clouds.14 mph72%30.01 "HgN/A
8:50 AM61 °FScattered clouds.12 mph72%30.01 "HgN/A
8:20 AM61 °FScattered clouds.12 mph72%30.01 "HgN/A
Weather by CustomWeather, © 2014

See weather overviewHow to use our weather pages